Airfield :
LOGIN :

Register | Disclaimer

   EN    FR    IT 

 










Legend :    VFR   Marginal VFR   IFR   Intensive IFR   Very Intensive IFR
Visi :
Ceiling :
>= 8 km
>= 3000ft
5 to 8 km
1000 to 3000 ft
1500m to 5 km
500 to 1000 ft
800 to 1500m
200 to 500 ft
< 800m
< 200 ft
Symbols :   Thunderstorms  Fog  Heavy snow  Heavy precipitations  Wind > 20 kt
SIGMETs :     Misc.  Thunderstorms  Icing  Turbulence  Mountain Waves  Volcanic Ashes







- Airport Elevation : 628 ft
- IATA code : CMR
- Download approach charts


LFGA - Colmar-Houssen

CURRENT METAR :
  • 270000Z AUTO 32002KT 9000 OVC056 05/01 Q1030

EXPIRED METARs :
  • 262330Z AUTO VRB01KT 9000 OVC056 05/M00 Q1031
  • 262300Z AUTO VRB02KT 9000 OVC058 05/M00 Q1031
  • 262230Z AUTO 29005KT 9000 OVC058 05/M00 Q1030
  • 262200Z AUTO 31003KT 9999 BKN058 04/M01 Q1030
  • 262130Z AUTO 31002KT 9000 NSC 04/M01 Q1030

TAF N/A
No reported NOTAMs for that airfield.



MET'MAP, your aeronautical weather chart ! - Copyright ORBIFLY December 2007 - Disclaimer

ORBIFLY MET'MAP TEAM :

Programming & Development : Alexandra Zaïnal
Concept & Development : Baudouin d'Aumeries
Co-Development & Prog : Marc-Olivier Méhu
Technical & hardware support : Manuel Goepfert

Contact : metmap@orbifly.com




SOURCES & CREDITS :

   NOAA